| time (UTC) | temp C | wind direction | speed KPH | gust KPH | rain 1hr cm | rain 24hr cm | rain mn cm | humidity % | barometer mb |
| 20260506113004 | 15 | 155 | 6.4 | 19.3 | 0.00 | 0.00 | 0.00 | 84 | 1006.7 |
| 20260506111504 | 15 | 184 | 8.0 | 19.3 | 0.00 | 0.00 | 0.00 | 81 | 1006.4 |
| 20260506110004 | 15 | 171 | 4.8 | 20.9 | 0.00 | 0.00 | 0.00 | 79 | 1006.4 |
| 20260506104504 | 15 | 185 | 4.8 | 20.9 | 0.00 | 0.00 | 0.00 | 77 | 1006.2 |
| 20260506103004 | 15 | 175 | 4.8 | 19.3 | 0.00 | 0.00 | 0.00 | 77 | 1005.9 |
| 20260506101504 | 15 | 173 | 3.2 | 19.3 | 0.00 | 0.00 | 0.00 | 76 | 1006.1 |
| 20260506100004 | 15 | 215 | 6.4 | 14.5 | 0.00 | 0.00 | 0.00 | 75 | 1006.2 |
| 20260506094503 | 15 | 174 | 3.2 | 12.9 | 0.00 | 0.00 | 0.00 | 75 | 1006.5 |
| 20260506091504 | 15 | 172 | 1.6 | 9.7 | 0.00 | 0.00 | 0.00 | 72 | 1006.5 |
| 20260506090004 | 15 | 186 | 4.8 | 11.3 | 0.00 | 0.00 | 0.00 | 71 | 1006.6 |
| 20260506083005 | 16 | 254 | 0.0 | 8.0 | 0.00 | 0.00 | 0.00 | 69 | 1006.7 |
| 20260506081504 | 16 | 170 | 3.2 | 11.3 | 0.00 | 0.00 | 0.00 | 68 | 1006.6 |
| 20260506073004 | 16 | 186 | 6.4 | 16.1 | 0.00 | 0.00 | 0.00 | 66 | 1006.9 |
| 20260506071504 | 16 | 146 | 3.2 | 11.3 | 0.00 | 0.00 | 0.00 | 66 | 1007.1 |
| 20260506061504 | 16 | 230 | 4.8 | 11.3 | 0.00 | 0.00 | 0.00 | 65 | 1007.5 |
| 20260506044503 | 14 | 186 | 1.6 | 4.8 | 0.00 | 0.00 | 0.00 | 68 | 1008.0 |
| 20260506043004 | 15 | 186 | 1.6 | 4.8 | 0.00 | 0.00 | 0.00 | 66 | 1008.1 |
| 20260506041504 | 15 | 187 | 1.6 | 4.8 | 0.00 | 0.00 | 0.00 | 64 | 1008.1 |
| 20260506040004 | 16 | 188 | 1.6 | 8.0 | 0.00 | 0.00 | 0.00 | 63 | 1008.2 |
| 20260506034503 | 16 | 174 | 1.6 | 4.8 | 0.00 | 0.00 | 0.00 | 61 | 1008.2 |
| 20260506033005 | 17 | 212 | 3.2 | 9.7 | 0.00 | 0.00 | 0.00 | 60 | 1008.2 |
| 20260506031504 | 17 | 185 | 1.6 | 9.7 | 0.00 | 0.00 | 0.00 | 58 | 1008.1 |
| 20260506024504 | 18 | 183 | 1.6 | 9.7 | 0.00 | 0.00 | 0.00 | 57 | 1008.2 |
| 20260506021503 | 19 | 204 | 3.2 | 11.3 | 0.00 | 0.00 | 0.00 | 56 | 1008.2 |
| 20260506020003 | 19 | 207 | 3.2 | 19.3 | 0.00 | 0.00 | 0.00 | 55 | 1008.1 |
| 20260506014505 | 20 | 196 | 8.0 | 16.1 | 0.00 | 0.00 | 0.00 | 54 | 1008.1 |
| 20260506013004 | 20 | 222 | 4.8 | 16.1 | 0.00 | 0.00 | 0.00 | 53 | 1008.1 |
| 20260506011504 | 20 | 212 | 3.2 | 19.3 | 0.00 | 0.00 | 0.00 | 52 | 1007.8 |
| 20260506010004 | 21 | 195 | 3.2 | 19.3 | 0.00 | 0.00 | 0.00 | 52 | 1007.7 |
| 20260506004505 | 21 | 185 | 6.4 | 19.3 | 0.00 | 0.00 | 0.00 | 51 | 1007.5 |
| 20260506003004 | 21 | 221 | 6.4 | 19.3 | 0.00 | 0.00 | 0.00 | 49 | 1007.4 |
| 20260506001503 | 21 | 179 | 1.6 | 14.5 | 0.00 | 0.00 | 0.00 | 48 | 1007.2 |
| 20260506000004 | 21 | 194 | 6.4 | 25.7 | 0.00 | 0.00 | 0.00 | 47 | 1007.1 |
| 20260505234504 | 21 | 194 | 6.4 | 24.1 | 0.00 | 0.00 | 0.00 | 47 | 1007.1 |
| 20260505233004 | 21 | 195 | 4.8 | 29.0 | 0.00 | 0.00 | 0.00 | 47 | 1006.9 |
| 20260505231504 | 21 | 207 | 4.8 | 19.3 | 0.00 | 0.00 | 0.00 | 48 | 1006.9 |
| 20260505230003 | 22 | 218 | 4.8 | 22.5 | 0.00 | 0.00 | 0.00 | 48 | 1006.9 |
| 20260505224504 | 22 | 199 | 8.0 | 25.7 | 0.00 | 0.00 | 0.00 | 48 | 1006.8 |
| 20260505223004 | 22 | 205 | 3.2 | 19.3 | 0.00 | 0.00 | 0.00 | 48 | 1006.7 |
| 20260505221504 | 22 | 245 | 6.4 | 14.5 | 0.00 | 0.00 | 0.00 | 48 | 1006.7 |
| 20260505220003 | 22 | 269 | 6.4 | 24.1 | 0.00 | 0.00 | 0.00 | 49 | 1006.7 |
| 20260505214504 | 22 | 250 | 4.8 | 19.3 | 0.00 | 0.00 | 0.00 | 48 | 1006.6 |
| 20260505213003 | 23 | 229 | 9.7 | 22.5 | 0.00 | 0.00 | 0.00 | 45 | 1006.5 |
| 20260505211504 | 23 | 201 | 4.8 | 20.9 | 0.00 | 0.00 | 0.00 | 45 | 1006.4 |
| 20260505210004 | 23 | 236 | 11.3 | 40.2 | 0.00 | 0.00 | 0.00 | 44 | 1006.3 |
| 20260505204505 | 23 | 192 | 9.7 | 40.2 | 0.00 | 0.00 | 0.00 | 44 | 1006.1 |
| 20260505203004 | 23 | 235 | 8.0 | 32.2 | 0.00 | 0.00 | 0.00 | 44 | 1006.2 |
| 20260505201504 | 24 | 217 | 14.5 | 29.0 | 0.00 | 0.00 | 0.00 | 43 | 1006.3 |
| 20260505200004 | 25 | 211 | 16.1 | 41.8 | 0.00 | 0.00 | 0.00 | 42 | 1006.2 |
| 20260505194505 | 26 | 206 | 12.9 | 35.4 | 0.00 | 0.00 | 0.00 | 41 | 1006.4 |
| 20260505193004 | 25 | 225 | 9.7 | 25.7 | 0.00 | 0.00 | 0.00 | 41 | 1006.2 |
| 20260505191504 | 26 | 201 | 14.5 | 33.8 | 0.00 | 0.00 | 0.00 | 40 | 1006.5 |
| 20260505190004 | 25 | 230 | 11.3 | 46.7 | 0.00 | 0.00 | 0.00 | 41 | 1006.7 |
| 20260505184505 | 25 | 201 | 9.7 | 27.4 | 0.00 | 0.00 | 0.00 | 41 | 1006.9 |
| 20260505183004 | 25 | 243 | 16.1 | 33.8 | 0.00 | 0.00 | 0.00 | 42 | 1007.1 |
| 20260505181503 | 25 | 190 | 9.7 | 35.4 | 0.00 | 0.00 | 0.00 | 42 | 1007.3 |
| 20260505174505 | 25 | 214 | 11.3 | 32.2 | 0.00 | 0.00 | 0.00 | 43 | 1007.6 |
| 20260505173004 | 25 | 203 | 20.9 | 46.7 | 0.00 | 0.00 | 0.00 | 41 | 1007.6 |
| 20260505171504 | 25 | 249 | 9.7 | 38.6 | 0.00 | 0.00 | 0.00 | 43 | 1007.6 |
| 20260505170004 | 25 | 235 | 9.7 | 27.4 | 0.00 | 0.00 | 0.00 | 44 | 1007.7 |
| 20260505164504 | 26 | 211 | 9.7 | 25.7 | 0.00 | 0.00 | 0.00 | 44 | 1008.0 |
| 20260505163004 | 25 | 212 | 8.0 | 20.9 | 0.00 | 0.00 | 0.00 | 47 | 1008.1 |
| 20260505161504 | 24 | 247 | 4.8 | 27.4 | 0.00 | 0.00 | 0.00 | 48 | 1008.3 |
| 20260505153004 | 24 | 242 | 8.0 | 22.5 | 0.00 | 0.00 | 0.00 | 50 | 1009.0 |
| 20260505151504 | 23 | 191 | 4.8 | 35.4 | 0.00 | 0.00 | 0.00 | 52 | 1009.0 |
| 20260505124504 | 17 | 207 | 8.0 | 19.3 | 0.00 | 0.00 | 0.00 | 66 | 1009.6 |
| 20260505123004 | 17 | 215 | 4.8 | 19.3 | 0.00 | 0.00 | 0.00 | 66 | 1009.7 |
| 20260505121504 | 16 | 250 | 4.8 | 14.5 | 0.00 | 0.00 | 0.00 | 69 | 1009.7 |
| 20260505120004 | 15 | 214 | 4.8 | 12.9 | 0.00 | 0.00 | 0.00 | 72 | 1009.6 |
| 20260505114503 | 13 | 234 | 4.8 | 14.5 | 0.00 | 0.00 | 0.00 | 77 | 1009.7 |